Fort Worth, TX

5:36 AM CDT on May 30, 2017 (GMT -0500)
Fort Worth Meacham International

Weather History for KFTW - January, 2004

Change the Weather History Date:

Friday, January 2, 2004

  Actual Average Record
Temperature  
Mean Temperature 70 °F -  
Max Temperature 79 °F 55 °F 79 °F (2004)
Min Temperature 60 °F 35 °F 19 °F (2002)
Cooling Degree Days 4    
Growing Degree Days 20 (Base 50)    
Moisture  
Dew Point 61 °F    
Average Humidity 82    
Maximum Humidity 100    
Minimum Humidity 52    
Precipitation  
Precipitation 0.00 in - - ()
Sea Level Pressure  
Sea Level Pressure 29.96 in    
Wind  
Wind Speed 13 mph (South)    
Max Wind Speed 20 mph    
Max Gust Speed 31 mph    
Visibility 9 miles    
Events      
Averages and records for this station are not official NWS values.
T = Trace of Precipitation, MM = Missing Value Source: NWS Daily Summary

Daily Weather History Graph

Daily Weather History Graph

Search for Another Location

Airport or City:

Trip Planner

Search our weather history database for the weather conditions in past years. The results will help you decide how hot, cold, wet, or windy it might be!

Date:

Astronomy

Jan. 02, 2004 Rise Set
Actual Time 7:32 AM CST 5:34 PM CST
Civil Twilight 7:04 AM CST 6:01 PM CST
Nautical Twilight 6:34 AM CST 6:32 PM CST
Astronomical Twilight 6:04 AM CST 7:02 PM CST
Moon 2:03 PM CST (1/2) 3:11 AM CST (1/2)
Length of Visible Light 10h 56m
Length of Day
10h 02m
Waxing Gibbous, 80% of the Moon is Illuminated
Jan 2
Waxing Gibbous
Jan 7
Full
Jan 14
Last Quarter
Jan 21
New
Jan 29
First Quarter

Hourly Weather History & Observations

Time (CST) Temp. Dew Point Humidity Pressure Visibility Wind Dir Wind Speed Gust Speed Precip Events Conditions
12:53 AM 64.0 °F 60.1 °F 87% 30.03 in 10.0 mi South 12.7 mph - N/A   Clear
1:53 AM 64.0 °F 60.1 °F 87% 30.04 in 10.0 mi South 11.5 mph - N/A   Mostly Cloudy
2:53 AM 63.0 °F 60.1 °F 90% 30.03 in 10.0 mi SSW 10.4 mph - N/A   Mostly Cloudy
3:53 AM 64.0 °F 61.0 °F 90% 30.02 in 10.0 mi South 9.2 mph - N/A   Overcast
4:04 AM 62.6 °F 60.8 °F 94% 30.03 in 10.0 mi South 6.9 mph - N/A   Mostly Cloudy
4:53 AM 62.1 °F 60.1 °F 93% 30.01 in 10.0 mi South 9.2 mph - N/A   Scattered Clouds
5:12 AM 62.6 °F 60.8 °F 94% 30.02 in 10.0 mi South 8.1 mph - N/A   Mostly Cloudy
5:53 AM 62.1 °F 60.1 °F 93% 30.01 in 9.0 mi South 11.5 mph - N/A   Overcast
6:46 AM 60.8 °F 59.0 °F 94% 30.01 in 7.0 mi South 9.2 mph - N/A   Scattered Clouds
6:53 AM 60.1 °F 60.1 °F 100% 29.99 in 6.0 mi South 11.5 mph - N/A   Scattered Clouds
7:10 AM 60.8 °F 60.8 °F 100% 30.01 in 7.0 mi South 10.4 mph - N/A   Mostly Cloudy
7:24 AM 60.8 °F 60.8 °F 100% 30.02 in 6.0 mi SSW 11.5 mph - N/A   Overcast
7:53 AM 61.0 °F 60.1 °F 97% 30.01 in 5.0 mi South 9.2 mph - N/A   Overcast
8:35 AM 62.6 °F 60.8 °F 94% 30.03 in 6.0 mi South 11.5 mph - N/A   Overcast
8:53 AM 64.0 °F 61.0 °F 90% 30.01 in 7.0 mi South 13.8 mph - N/A   Mostly Cloudy
9:11 AM 64.4 °F 62.6 °F 94% 30.03 in 9.0 mi South 13.8 mph - N/A   Scattered Clouds
9:53 AM 68.0 °F 62.1 °F 81% 30.03 in 10.0 mi SSW 13.8 mph - N/A   Mostly Cloudy
10:10 AM 69.8 °F 62.6 °F 78% 30.04 in 10.0 mi SSW 11.5 mph - N/A   Scattered Clouds
10:43 AM 69.8 °F 62.6 °F 78% 30.04 in 10.0 mi SSW 12.7 mph - N/A   Mostly Cloudy
10:53 AM 69.1 °F 62.1 °F 78% 30.02 in 10.0 mi SSW 15.0 mph 24.2 mph N/A   Mostly Cloudy
11:53 AM 73.9 °F 62.1 °F 66% 29.98 in 10.0 mi SSW 17.3 mph 25.3 mph N/A   Mostly Cloudy
12:25 PM 73.4 °F 60.8 °F 65% 29.97 in 10.0 mi SSW 19.6 mph 26.5 mph N/A   Partly Cloudy
12:53 PM 75.9 °F 61.0 °F 60% 29.93 in 10.0 mi SSW 16.1 mph - N/A   Clear
1:53 PM 77.0 °F 61.0 °F 58% 29.89 in 10.0 mi South 16.1 mph 23.0 mph N/A   Clear
2:53 PM 79.0 °F 60.1 °F 52% 29.87 in 10.0 mi SSW 18.4 mph - N/A   Clear
3:53 PM 77.0 °F 61.0 °F 58% 29.85 in 10.0 mi South 16.1 mph 25.3 mph N/A   Clear
4:53 PM 75.0 °F 62.1 °F 64% 29.85 in 10.0 mi South 16.1 mph - N/A   Clear
5:53 PM 72.0 °F 62.1 °F 71% 29.86 in 10.0 mi South 17.3 mph 24.2 mph N/A   Clear
6:53 PM 70.0 °F 62.1 °F 76% 29.85 in 10.0 mi South 16.1 mph 21.9 mph N/A   Clear
7:53 PM 69.1 °F 61.0 °F 75% 29.85 in 10.0 mi South 16.1 mph 24.2 mph N/A   Clear
8:53 PM 70.0 °F 61.0 °F 73% 29.86 in 10.0 mi South 19.6 mph 31.1 mph N/A   Clear
9:47 PM 71.6 °F 64.4 °F 78% 29.90 in 13.0 mi South 17.3 mph - N/A   Clear
9:53 PM 68.0 °F 61.0 °F 78% 29.87 in 10.0 mi South 18.4 mph 29.9 mph N/A   Clear
10:53 PM 66.9 °F 61.0 °F 81% 29.88 in 10.0 mi South 17.3 mph - N/A   Clear
11:53 PM 66.0 °F 62.1 °F 87% 29.88 in 10.0 mi SSW 17.3 mph 24.2 mph N/A   Clear